• Join FlightAware (Why Join?)
  • Login
  • US Flag 
06:46AM EDT


 

Airport Tracker/Info


-or-


 

Live Flight TrackerFlight Track Log ✈ ASQ5745 ✈ 19-Jun-2013 ✈ KDAY - KORD

Flight Track Log - Related Links

Times and Time Zones

All times are in EDT time to prevent confusion due to time zone crossing. See the ASQ5745 flight status page for this flight to view local times or setup timezone preferences in your user account.

Time Position Orientation Groundspeed Altitude Reporting Facility
EDT Latitude Longitude Course Direction KTS MPH feet Rate Location/Type
06:59PM 39.9064 -84.1964 323° Northwest 149 171 1,600  Level Indianapolis Center
07:00PM 39.9392 -84.2061 347° North 184 212 2,800 1,500 Climbing Indianapolis Center
07:00PM 39.9772 -84.2458 321° Northwest 223 257 4,000 2,220 Climbing Indianapolis Center
07:01PM 40.0353 -84.3089 320° Northwest 249 287 6,800 2,640 Climbing Indianapolis Center
07:02PM 40.1329 -84.4328 323° Northwest  Level FlightAware Approximate
07:02PM 40.0978 -84.3694 323° Northwest 270 311 9,500  Level Indianapolis Center
07:03PM 40.1903 -84.4903 323° Northwest  Level FlightAware Approximate
07:03PM 40.1639 -84.4417 320° Northwest 298 343 10,800  Level Indianapolis Center
07:04PM 40.2478 -84.5477 323° Northwest  Level FlightAware Approximate
07:04PM 40.2375 -84.5172 322° Northwest 328 377 13,000  Level Indianapolis Center
07:05PM 40.3067 -84.5900 321° Northwest 319 367 15,300 1,920 Climbing Indianapolis Center
07:07PM 40.3769 -84.6625 322° Northwest 317 365 17,000 1,620 Climbing Indianapolis Center
07:08PM 40.4619 -84.7486 322° Northwest 326 375 18,700 1,500 Climbing Indianapolis Center
07:09PM 40.5350 -84.8214 323° Northwest 328 377 20,100 1,260 Climbing Indianapolis Center
07:10PM 40.6158 -84.8867 328° Northwest 336 387 21,400 900 Climbing Indianapolis Center
07:11PM 40.6939 -84.9511 328° Northwest 340 391 22,000 240 Climbing Indianapolis Center
07:12PM 40.7758 -85.0372 321° Northwest 382 440 22,000  Level Indianapolis Center
07:13PM 40.8383 -85.1586 304° West 400 460 22,000  Level Indianapolis Center
07:14PM 40.9161 -85.3092 304° West 416 479 22,000  Level Indianapolis Center
07:15PM 40.9836 -85.4378 305° West 425 489 22,000  Level Indianapolis Center
07:16PM 41.0503 -85.5661 305° West 427 491 22,000  Level Indianapolis Center
07:17PM 41.1161 -85.6981 304° West 430 495 22,000  Level Indianapolis Center
07:18PM 41.1819 -85.8308 303° West 431 496 22,000  Level Indianapolis Center
07:19PM 41.2422 -85.9508 304° West 400 460 22,000  Level Indianapolis Center
07:20PM 41.3006 -86.1042 297° West 392 451 22,000  Level Indianapolis Center
07:21PM 41.3356 -86.2419 289° West 394 453 22,000  Level Indianapolis Center
07:22PM 41.3711 -86.3806 289° West 396 456 22,000 -60 Level Indianapolis Center
07:24PM 41.4228 -86.5947 288° West 399 459 21,900 -960 Descending Chicago Center
07:25PM 41.4589 -86.7342 289° West 393 452 19,700 -2,040 Descending Chicago Center
07:26PM 41.4906 -86.8644 288° West 379 436 17,700 -2,040 Descending Chicago Center
07:27PM 41.5214 -86.9931 288° West 371 427 15,600 -1,800 Descending Chicago Center
07:28PM 41.5500 -87.1081 288° West 339 390 14,100 -1,680 Descending Chicago Center
07:29PM 41.5806 -87.2331 288° West 300 345 12,200 -1,260 Descending Chicago Center
07:30PM 41.6239 -87.3081 308° West 264 304 11,600 -660 Descending Chicago Center
07:31PM 41.6628 -87.3758 308° West 239 275 10,900 -780 Descending Chicago Center
07:32PM 41.7047 -87.4442 309° West 239 275 10,000 -1,140 Descending Chicago Center
07:33PM 41.7558 -87.5269 310° West 243 280 8,600 -1,200 Descending Chicago Center
07:34PM 41.7950 -87.5906 310° West 228 262 7,500 -780 Descending Chicago Center
07:35PM 41.8233 -87.6600 299° West 227 261 7,000 -300 Descending Chicago Center
07:36PM 41.8150 -87.7392 262° West 221 254 7,000 -120 Level Chicago Center
07:37PM 41.8106 -87.8078 265° West 196 226 6,800 -840 Descending Chicago Center
07:38PM 41.8058 -87.8875 265° West 186 214 5,300 -1,380 Descending Chicago Center
07:39PM 41.8306 -87.9478 299° West 190 219 4,000 -1,260 Descending Chicago Center